Regional Weather Roundup
Issued by NWS

Home | Current Version | Previous Version | Graphics & Text | Print | Product List | Glossary On
Versions: 1 2 3 4 5 6 7 8 9 10 11 12 13 14 15 16 17 18 19 20 21 22 23 24 25 26 27 28 29 30 31 32 33 34 35 36 37 38 39 40 41 42 43 44 45 46 47 48 49 50
000
ASUS45 KABQ 190810
RWRNM
WEATHER ROUNDUP FOR NEW MEXICO
NATIONAL WEATHER SERVICE ALBUQUERQUE NM
200 AM MDT SAT APR 19 2014

NOTE: "FAIR" MEANS FEW OR NO CLOUDS BELOW 12,000 FEET AGL WITH NO
       SIGNIFICANT WEATHER OR OBSTRUCTIONS TO VISION.

      THIS PRODUCT IS RELEASED AS TWO VERSIONS.  ONE VERSION NEAR
      THE TOP OF THE HOUR CONTAINING PRELIMINARY DATA FROM ALBUQUERQUE
      AND OTHER STATIONS.  A FINAL VERSION WITH ADDITIONAL DATA IS
      ISSUED ABOUT 10 MINUTES AFTER THE HOUR.

NMZ501-503-504-510>518-190900-
NORTHWEST PLATEAU/NORTHCENTRAL MOUNTAINS

CITY           SKY/WX    TMP DP  RH WIND       PRES   REMARKS
FARMINGTON     LGT RAIN  54  40  59 S7        30.10F
LOS ALAMOS     CLOUDY    50  35  55 S8        30.19F
SANTA FE       LGT RAIN  50  43  77 E12       30.16F
TAOS           CLOUDY    52  28  40 W21G28    30.19S
ANGEL FIRE     PTSUNNY   47  31  52 SW20G28   30.20S

$$
NMZ402-403-502-505>509-190900-
WESTCENTRAL MOUNTAINS/SOUTHWEST MOUNTAINS

CITY           SKY/WX    TMP DP  RH WIND       PRES   REMARKS
GALLUP         PTCLDY    44  37  76 S8        30.14F
GRANTS         MOCLDY    45  34  65 CALM      30.16S
SILVER CITY    LGT RAIN  57  32  38 N10       30.08F

$$
NMZ407-409-411-412-190900-
SOUTHERN DESERTS

CITY           SKY/WX    TMP DP  RH WIND       PRES   REMARKS
LORDSBURG      PTSUNNY   55  43  62 W6        30.02F
DEMING         MOCLDY    57  35  43 SW5       30.00F
LAS CRUCES     MOCLDY    65  34  31 E5        30.02F
HOLLOMAN AFB   MOCLDY    59  50  72 W5        30.02F
ALAMOGORDO     MOCLDY    61  48  63 NW7       30.04F
T OR C         PTCLDY    60  30  32 NW7       30.04F

$$
NMZ519>523-190900-
CENTRAL VALLEYS/CENTRAL HIGHLANDS

CITY           SKY/WX    TMP DP  RH WIND       PRES   REMARKS
ALBUQUERQUE    CLOUDY    57  43  59 SW3       30.12F
DOUBLE EAGLE   CLOUDY    53  36  53 CALM      30.13F
MORIARTY ARPT  PTSUNNY   47  43  85 E5        30.16F
CLINES CORNERS LGT RAIN  46  42  86 NW12      30.17F
BELEN          FAIR      55  35  47 CALM      30.09F
SOCORRO        FAIR      54  36  50 SW5       30.07F

$$
NMZ524>526-539-540-190900-
SOUTHCENTRAL MOUNTAINS

CITY           SKY/WX    TMP DP  RH WIND       PRES   REMARKS
RUIDOSO        CLOUDY    50  39  66 S6        30.19S

$$
NMZ527>531-190900-
NORTHEAST HIGHLANDS/NORTHEAST PLAINS

CITY           SKY/WX    TMP DP  RH WIND       PRES   REMARKS
LAS VEGAS      PTCLDY    50  33  52 W20       30.16R
RATON          PTCLDY    48  38  68 SW6       30.08F
CLAYTON        MOCLDY    53  41  63 S18       30.04F

$$
NMZ532>537-190900-
EASTCENTRAL PLAINS

CITY           SKY/WX    TMP DP  RH WIND       PRES   REMARKS
TUCUMCARI      PTCLDY    60  43  53 SW20G25   30.05R
CANNON AFB     MOCLDY    54  43  67 SW6       30.11S
CLOVIS AIRPORT MOCLDY    52  41  66 S8        30.13F

$$
NMZ028-029-538-190900-
SOUTHEAST PLAINS

CITY           SKY/WX    TMP DP  RH WIND       PRES   REMARKS
ROSWELL        CLOUDY    61  44  53 S10       30.07S
ARTESIA        CLOUDY    63  46  55 S14G20    30.07R
CARLSBAD       CLOUDY    64  47  53 SE8       30.07R
HOBBS          MOCLDY    54  43  66 E7        30.09F


$$



USA.gov is the U.S. government's official web portal to all federal, state and local government web resources and services.